Simultaneous Nadir Overpasses (SNOs) Predictions

Prediction of SNOs between METOP-B and NOAA-19 Satellite Orbit:

Table of predicted SNOs for the next 14.0 days since TLE Epoch: 8/30/2019
Index Date (METOP-B) Time (METOP-B) Lat,Lon (METOP-B) SZA (METOP-B ) Date (NOAA-19) Time (NOAA-19) Lat,Lon (NOAA-19) SZA (NOAA-19 ) Distance(km) Time Diff (sec)
1 09/09/2019 04:00:26 79.55, 137.87 74.62 09/09/2019 03:59:13 79.54, 136.99 74.54 17.89 73
2 09/09/2019 04:51:09 -79.50, -55.21 105.45 09/09/2019 04:50:07 -79.50, -55.36 105.47 2.99 62
3 09/09/2019 05:41:50 79.47, 111.87 74.53 09/09/2019 05:41:12 79.49, 111.99 74.54 3.17 38
4 09/09/2019 06:32:31 -79.49, -80.66 105.44 09/09/2019 06:32:07 -79.48, -80.64 105.45 1.07 24
5 09/09/2019 07:23:11 79.49, 86.69 74.58 09/09/2019 07:23:12 79.47, 86.71 74.56 2.53 1
6 09/09/2019 08:13:53 -79.47,-106.12 105.43 09/09/2019 08:14:08 -79.48,-106.20 105.42 2.22 15
7 09/09/2019 09:04:33 79.47, 61.23 74.59 09/09/2019 09:05:13 79.47, 61.14 74.59 1.89 40
8 09/09/2019 09:55:15 -79.46,-131.57 105.43 09/09/2019 09:56:08 -79.46,-131.49 105.40 1.80 53




NCC Satellite Simultaneous Nadir Overpasses (SNOs) Prediction Service
